Date/Time (UTC),ProbHail,ProbWind,ProbTor,MESH,VIL Density,Flash Rate,Max Flash Density,LJA sigma-level,Max 0-2km AzShear,LLAZ 98th%,MLAZ 98th%,MUCAPE,MLCAPE,CAPE -10C to -30C,MLCIN,SRH 0-1km AGL,EBShear,MeanWind 0-1km AGL,Norm. Sat. Growth Rate,PWAT,WBZ,AvgBeamHgt,size
2019/05/21 22:10,9,83,62,0.28,1.4,91,0.57,0.0,18,9,6,1154,796,234,5,445,58.9,53.6,0,1.9,11.2,4.6,1630
2019/05/21 22:12,40,95,68,0.73,2.4,91,0.57,0.0,14,9,7,1109,876,235,4,426,59.8,53.9,0,1.9,11.2,4.4,1618
2019/05/21 22:14,41,97,69,0.73,2.6,91,0.57,0.0,14,9,6,1311,1091,298,4,392,61.1,54.0,0,1.9,11.2,4.2,1286
2019/05/21 22:16,41,97,60,0.73,2.6,91,0.57,0.0,15,9,7,1153,919,249,6,437,60.9,53.9,0,1.9,11.2,4.1,1742
2019/05/21 22:18,31,93,66,0.7,2.6,51,0.57,0.0,15,10,6,1299,1108,290,5,416,61.8,54.0,0,1.9,11.3,3.8,1505
2019/05/21 22:20,40,92,66,0.83,2.6,46,0.57,0.0,15,10,7,1335,1146,299,5,416,62.2,54.0,0,1.9,11.3,3.7,1367
2019/05/21 22:22,44,94,66,0.85,2.6,46,0.57,0.0,15,10,6,1360,1175,305,5,413,62.5,54.0,0,1.9,11.3,3.6,1303
2019/05/21 22:24,42,97,56,0.85,2.9,46,0.57,0.8,12,9,5,1371,1202,306,8,423,62.1,54.0,0,1.9,11.3,3.4,1419
2019/05/21 22:26,45,94,47,0.91,2.9,42,0.57,0.0,13,7,7,1372,1217,308,11,429,61.7,53.8,0,1.9,11.3,3.2,1268
2019/05/21 22:28,79,95,57,1.24,2.9,78,0.74,7.3,13,7,8,1398,1248,315,13,429,61.1,53.7,0,1.9,11.3,3.1,1320
2019/05/21 22:30,83,95,57,1.35,3.2,78,0.74,0.0,13,7,8,1398,1247,316,14,429,60.9,53.7,0,1.9,11.3,3.0,1345
2019/05/21 22:32,82,95,71,1.35,3.2,78,0.74,0.0,20,7,7,1356,1201,312,22,441,59.3,53.6,0,1.9,11.3,3.0,1510
2019/05/21 22:34,81,95,75,1.35,3.2,78,0.74,0.3,20,9,6,1338,1138,317,33,453,57.9,53.3,0,1.9,11.3,2.6,1225
2019/05/21 22:36,68,95,69,1.24,2.8,53,0.74,0.3,20,9,6,1357,1140,326,36,451,58.4,53.3,0,1.9,11.3,2.6,1342
2019/05/21 22:38,57,95,62,0.98,2.8,70,0.74,0.7,20,9,6,1354,1121,326,37,454,58.3,53.2,0,1.9,11.3,2.5,1435
2019/05/21 22:40,59,95,43,0.98,2.8,70,0.74,0.0,14,9,6,1394,1083,356,56,455,59.9,53.0,0,1.9,11.3,2.3,1379
2019/05/21 22:42,63,95,49,0.98,2.6,81,0.74,2.5,14,9,9,1418,1085,372,68,453,60.9,52.8,0,1.9,11.3,2.1,1392
2019/05/21 22:44,76,95,47,1.17,2.8,81,0.74,0.0,14,9,9,1413,1067,370,71,455,60.6,52.8,0,1.9,11.3,2.1,1454
2019/05/21 22:46,81,95,38,1.26,3.0,81,0.74,0.0,18,9,9,1425,1063,378,80,454,61.0,52.7,0,1.9,11.3,2.0,1517
2019/05/21 22:48,81,95,42,1.26,3.0,81,0.74,0.7,14,11,8,1440,1064,395,98,454,61.7,52.4,0,1.9,11.4,1.9,1472
2019/05/21 22:50,81,95,51,1.26,3.0,92,0.74,1.2,26,11,10,1462,1106,418,102,451,61.3,52.2,0,1.9,11.4,1.7,1397
2019/05/21 22:52,91,95,51,1.7,2.9,95,0.74,0.1,26,11,9,1465,1112,419,101,450,61.3,52.2,0,1.9,11.4,1.7,1523
2019/05/21 22:54,94,95,83,2.12,2.7,95,0.74,0.0,26,11,9,900,374,284,18,442,51.9,50.5,0,1.9,11.4,1.7,1672
2019/05/21 22:56,94,95,80,2.12,2.8,95,0.74,1.0,19,12,9,933,403,283,19,441,51.2,50.9,0,1.9,11.4,1.5,1590
2019/05/21 22:58,94,95,85,2.12,3.1,95,0.74,0.0,19,12,10,961,421,280,22,441,49.7,51.3,0,1.9,11.4,1.4,1529
2019/05/21 23:00,94,95,88,2.41,3.1,83,0.73,0.0,23,12,11,969,433,283,23,439,49.6,51.4,0,1.9,11.4,1.4,1580
2019/05/21 23:02,94,95,86,2.41,3.1,83,0.73,0.3,23,12,11,982,368,266,26,445,49.1,51.7,0,1.9,11.4,1.3,1701
2019/05/21 23:04,95,95,90,2.41,3.1,104,0.76,2.0,33,13,11,1083,502,290,30,431,49.4,52.1,0,1.9,11.4,1.1,1371
2019/05/21 23:06,94,95,89,1.93,3.3,104,0.76,0.0,28,13,12,1082,471,286,31,434,49.3,52.3,0,1.9,11.4,1.1,1625
2019/05/21 23:08,90,95,90,1.55,3.3,104,0.81,1.1,28,13,13,1114,527,294,32,432,49.5,52.3,0,1.9,11.4,1.0,1542
2019/05/21 23:10,71,95,88,1.03,3.3,104,0.81,0.0,28,13,13,1100,441,283,37,436,49.3,52.7,0,1.9,11.4,0.9,1563
2019/05/21 23:12,64,95,89,0.93,3.1,102,0.81,0.0,30,12,11,1124,484,290,42,435,49.5,52.7,0,1.9,11.4,0.8,1382
2019/05/21 23:14,74,95,89,1.06,2.7,102,0.81,0.1,30,12,12,1129,506,293,42,435,49.7,52.8,0,1.9,11.4,0.8,1564
2019/05/21 23:16,76,95,86,1.06,2.7,108,0.81,1.4,30,12,12,1135,496,293,46,437,50.0,52.9,0,2.0,11.4,0.7,1570
2019/05/21 23:18,76,95,85,1.06,2.7,108,0.81,0.0,17,11,12,1140,496,293,49,440,50.7,53.0,0,2.0,11.5,0.7,1514
2019/05/21 23:20,69,95,83,0.97,2.8,108,0.81,0.0,18,11,11,1147,511,296,51,441,51.9,53.0,0,2.0,11.5,0.6,1558
2019/05/21 23:22,62,95,87,0.86,2.8,108,0.81,0.2,18,11,11,1156,546,301,45,442,52.5,53.0,0,2.0,11.5,0.6,1625
2019/05/21 23:24,48,97,90,0.86,2.8,69,0.81,0.0,25,15,11,1192,700,322,39,437,54.7,52.9,0,2.0,11.5,0.5,1360
2019/05/21 23:26,52,97,73,0.85,2.6,81,0.81,1.8,25,15,10,1169,567,309,67,450,56.9,53.1,0,2.0,11.5,0.4,1403
2019/05/21 23:28,52,97,71,0.85,2.9,81,0.81,0.0,25,15,10,1173,580,311,69,451,57.6,53.1,0,2.0,11.5,0.4,1477
2019/05/21 23:30,77,95,75,1.24,2.9,81,0.81,0.1,25,13,10,1226,699,333,62,449,60.2,53.0,0,2.0,11.5,0.3,1289
2019/05/21 23:32,79,95,76,1.24,2.9,81,0.81,0.0,25,13,9,1303,787,351,60,449,62.0,53.0,0,2.0,11.5,0.3,1083
2019/05/21 23:34,71,95,64,1.24,2.8,59,0.81,0.3,25,13,9,1354,781,357,78,455,62.0,53.1,0,2.0,11.5,0.3,1003
2019/05/21 23:36,71,95,46,1.22,2.4,59,0.81,0.0,23,11,8,1358,743,356,92,459,61.0,53.1,0,2.0,11.5,0.4,1027
2019/05/21 23:38,71,95,53,1.22,2.4,59,0.81,0.2,30,11,9,1431,890,384,81,456,61.9,52.9,0,2.0,11.5,0.5,1418
2019/05/21 23:40,74,95,43,1.22,2.5,65,0.74,2.1,30,11,9,1422,864,390,106,462,60.9,52.8,0,2.0,11.5,0.6,1485
2019/05/21 23:42,70,95,44,1.11,2.6,69,0.79,0.3,18,11,9,1433,891,396,111,462,60.3,52.8,0,2.0,11.5,0.6,1485
2019/05/21 23:44,71,95,44,1.19,2.7,69,0.79,0.0,19,11,9,1442,913,399,113,462,60.2,52.8,0,2.0,11.5,0.6,1477
2019/05/21 23:46,71,95,52,1.19,2.7,69,0.79,0.0,19,11,10,1443,928,403,124,466,59.5,52.7,0,2.0,11.5,0.7,1474
2019/05/21 23:48,71,95,56,1.19,2.7,69,0.79,2.1,19,11,13,1454,960,408,131,471,58.6,52.6,0,2.0,11.5,0.7,1266
2019/05/21 23:50,42,97,55,0.8,2.2,72,0.79,0.4,18,12,14,1465,986,413,120,468,58.6,52.6,0,2.0,11.5,0.8,1300
2019/05/21 23:52,43,97,55,0.8,2.3,77,0.8,0.3,18,12,14,1475,1008,416,114,466,58.7,52.5,0,2.0,11.5,0.8,1463
2019/05/21 23:54,43,97,56,0.8,2.3,81,0.8,0.2,18,12,11,1488,1049,421,104,463,59.1,52.4,0,2.0,11.5,0.9,1479
2019/05/21 23:56,28,95,91,0.63,2.3,87,0.8,0.6,22,13,13,1539,772,423,35,504,59.2,50.4,0,2.0,11.5,1.0,1356
2019/05/21 23:58,24,95,92,0.6,2.2,87,0.8,0.0,22,13,12,1543,810,427,32,501,59.6,50.5,0,2.0,11.5,1.0,1363
2019/05/22 00:00,20,93,91,0.51,2.0,87,0.8,0.0,22,13,12,1543,774,424,36,504,59.4,50.6,0,2.0,11.5,1.1,1496
2019/05/22 00:02,21,93,90,0.51,2.1,87,0.8,1.5,21,12,11,1576,834,433,37,501,61.4,51.1,0,2.0,11.5,1.2,1167
2019/05/22 00:04,21,93,90,0.51,2.2,82,0.8,0.0,19,11,11,1579,825,435,39,501,61.7,51.2,0,2.0,11.5,1.2,1130
2019/05/22 00:06,25,95,90,0.6,2.2,82,0.8,0.0,19,11,11,1582,830,436,39,501,61.8,51.3,0,2.0,11.5,1.3,1181
2019/05/22 00:08,33,97,86,0.6,2.2,112,0.8,4.2,19,11,13,1589,785,441,47,502,62.6,51.7,0,2.0,11.5,1.4,1168
2019/05/22 00:10,33,97,76,0.6,2.2,112,0.8,0.0,19,10,20,1576,728,444,55,503,62.7,51.8,0,2.0,11.5,1.5,1112
2019/05/22 00:12,38,97,78,0.62,2.4,112,0.8,0.3,19,10,20,1585,794,453,52,499,63.1,51.9,0,2.0,11.5,1.5,1110
2019/05/22 00:14,48,97,74,0.74,2.4,124,0.8,1.3,19,10,18,1568,745,452,58,500,62.3,52.0,0,2.0,11.5,1.6,1259
2019/05/22 00:16,48,97,69,0.74,2.6,124,0.8,0.0,19,10,19,1552,691,451,64,500,61.3,52.2,0,2.0,11.6,1.7,1183
2019/05/22 00:18,48,97,56,0.74,2.6,124,0.8,0.2,19,9,20,1534,637,449,75,501,58.1,52.2,0,2.0,11.6,1.8,1091
2019/05/22 00:20,73,95,36,1.01,2.8,124,0.8,1.1,15,7,20,1532,633,449,77,500,57.3,52.2,0,2.0,11.6,1.9,1280
2019/05/22 00:22,73,95,32,1.05,2.9,123,0.8,0.0,15,7,20,1523,591,445,83,502,55.8,52.2,0,2.0,11.6,2.0,1381
2019/05/22 00:24,73,95,48,1.05,2.9,123,0.75,0.7,19,10,18,1529,628,449,88,497,53.8,52.2,0,2.0,11.6,2.2,1471
2019/05/22 00:26,73,95,56,1.05,2.9,160,0.83,1.7,19,11,17,1524,580,445,98,497,51.3,52.1,0,2.0,11.6,2.3,1428
2019/05/22 00:28,86,95,56,1.26,2.7,160,0.83,0.0,19,11,17,1526,596,446,97,495,51.6,52.1,0,2.0,11.6,2.3,1463
2019/05/22 00:30,86,95,56,1.26,2.7,160,0.83,0.0,19,11,18,1523,562,444,104,498,50.6,52.1,0,2.0,11.6,2.5,1348
2019/05/22 00:32,86,95,56,1.26,2.7,160,0.83,0.3,19,11,17,1519,498,441,126,501,49.0,52.0,0,1.9,11.6,2.7,1330
2019/05/22 00:34,72,95,17,1.15,2.6,78,0.83,0.2,12,5,16,1521,531,445,116,494,50.5,51.8,0,1.9,11.6,2.8,1331
2019/05/22 00:36,62,95,18,0.88,3.0,120,0.89,0.9,13,6,16,1518,497,443,126,496,49.9,51.8,0,1.9,11.6,2.9,1332
2019/05/22 00:38,73,95,22,1.01,3.0,120,0.89,0.0,13,6,15,1517,495,444,126,493,50.1,51.7,0,1.9,11.6,3.0,1355
2019/05/22 00:40,77,95,24,1.1,3.1,120,0.89,1.1,16,6,15,1514,471,445,133,491,49.9,51.5,0,1.9,11.6,3.1,1217
2019/05/22 00:42,77,95,24,1.1,3.1,120,0.89,0.0,16,6,13,1501,383,438,167,500,48.7,51.4,0,1.9,11.5,3.3,1242
2019/05/22 00:44,75,95,24,1.1,3.1,111,0.89,0.5,16,6,13,1502,400,440,158,497,49.1,51.3,0,1.9,11.5,3.4,1307
2019/05/22 00:46,68,95,24,0.98,2.9,111,0.89,0.0,16,6,12,1495,349,430,182,504,48.8,51.2,0,1.9,11.5,3.5,1357
2019/05/22 00:48,62,95,12,0.98,2.9,91,0.89,0.6,9,5,15,1482,307,411,211,512,48.8,51.0,0,1.9,11.5,3.8,1234
2019/05/22 00:50,70,95,8,1.09,2.9,91,0.89,0.7,9,5,15,1481,305,409,213,513,48.8,50.9,0,1.9,11.5,3.8,1199
2019/05/22 00:52,71,95,8,1.11,2.8,82,0.89,0.0,9,5,15,1483,313,414,204,511,49.0,50.9,0,1.9,11.5,3.9,1216
2019/05/22 00:54,71,95,8,1.11,2.8,82,0.89,0.5,9,5,5,1467,276,398,230,525,49.1,50.7,0,1.9,11.5,4.2,1186
2019/05/22 00:56,75,95,8,1.11,3.1,102,0.89,1.1,8,5,5,1471,284,402,222,524,49.3,50.6,0,1.9,11.5,4.3,1129
2019/05/22 00:58,74,95,3,1.11,3.1,102,0.89,0.0,8,5,6,1491,356,428,169,507,53.0,50.0,0,1.9,11.5,4.3,748
2019/05/22 01:00,74,95,6,1.13,3.1,102,0.89,0.6,12,6,5,1513,510,447,100,486,57.1,49.3,0,1.9,11.6,4.4,1014
2019/05/22 01:02,87,95,6,1.43,3.1,102,0.89,0.5,11,6,5,1489,430,432,132,509,57.5,49.2,0,1.9,11.6,4.6,1173
2019/05/22 01:04,92,95,6,1.54,3.1,135,0.89,1.6,11,6,5,1482,412,427,143,518,57.9,49.1,0,1.9,11.6,4.7,1183
2019/05/22 01:06,92,95,12,1.54,3.1,135,0.89,0.0,18,6,6,1463,349,419,172,536,58.2,49.0,0,1.9,11.5,4.9,1197
2019/05/22 01:08,92,95,12,1.54,3.2,135,0.86,0.0,18,6,5,1424,249,400,233,561,57.3,49.1,0,1.8,11.5,5.1,915
2019/05/22 01:10,92,95,12,1.54,3.7,135,0.86,0.6,17,6,6,1443,320,414,189,548,59.0,48.8,0,1.8,11.5,5.0,1187
2019/05/22 01:12,92,95,14,1.59,3.7,151,0.88,1.8,15,7,5,1431,301,411,200,554,59.4,48.7,0,1.8,11.5,5.1,1248
2019/05/22 01:14,92,95,17,1.59,3.7,151,0.88,0.0,17,8,6,1413,282,408,212,564,60.0,48.5,0,1.8,11.5,5.2,1298
2019/05/22 01:16,92,95,17,1.59,3.6,151,0.88,0.0,15,8,6,1400,261,405,219,570,60.1,48.5,0,1.8,11.5,5.3,1358
2019/05/22 01:18,92,95,17,1.56,3.6,151,0.88,0.0,15,8,6,1386,220,397,229,583,60.1,48.4,0,1.8,11.5,5.3,1378
2019/05/22 01:20,90,95,14,1.56,3.6,97,0.88,0.2,15,8,6,1367,201,393,226,589,60.4,48.3,0,1.8,11.5,5.5,1260
2019/05/22 01:22,90,95,11,1.56,3.6,93,0.88,0.2,13,7,6,1383,254,402,199,574,61.5,48.0,0,1.8,11.5,5.7,982
2019/05/22 01:24,79,95,13,1.21,3.6,93,0.88,0.0,13,7,7,1379,258,400,195,574,61.6,47.9,0,1.8,11.5,5.7,1000
2019/05/22 01:26,76,95,12,1.17,3.6,93,0.88,0.0,14,7,5,1352,212,388,192,586,61.3,47.8,0,1.7,11.5,5.8,950
2019/05/22 01:28,76,95,12,1.16,3.3,93,0.88,0.2,12,7,5,1339,204,384,186,586,61.3,47.7,0,1.7,11.5,5.9,938
2019/05/22 01:30,62,92,12,1.02,3.0,79,0.88,0.0,13,8,6,1232,219,384,188,492,55.5,41.8,0,1.9,11.6,6.0,829
2019/05/22 01:32,63,92,11,1.02,2.8,89,0.88,3.2,13,8,6,1224,184,388,213,493,55.6,41.9,0,1.9,11.5,6.0,818
2019/05/22 01:34,63,89,11,1.01,2.8,89,0.88,0.0,13,8,5,1213,175,393,240,494,56.0,42.0,0,1.9,11.5,6.0,792
2019/05/22 01:36,67,92,3,1.09,2.9,89,0.88,0.0,9,5,5,1208,169,393,249,494,56.1,42.0,0,1.9,11.5,6.0,786
2019/05/22 01:38,67,89,3,1.09,2.9,89,0.88,0.0,7,5,5,1218,184,392,248,496,56.2,42.0,0,1.9,11.5,6.1,830
2019/05/22 01:40,54,91,3,1.09,2.9,57,0.88,0.3,8,5,6,1161,115,382,291,500,55.9,42.2,0,1.9,11.5,5.7,968
2019/05/22 01:42,72,92,2,1.05,2.8,104,0.88,2.2,8,5,6,1125,79,361,336,511,55.4,42.4,0,1.9,11.5,5.3,959
2019/05/22 01:44,80,92,3,1.2,3.2,104,0.82,0.0,8,6,5,1126,53,353,325,514,54.8,42.6,0,1.9,11.5,5.0,1144
2019/05/22 01:46,80,92,2,1.2,3.2,104,0.74,0.0,8,6,5,1141,59,350,356,527,54.7,42.5,0,1.9,11.5,5.1,968
2019/05/22 01:48,84,95,3,1.2,3.2,125,0.72,2.0,9,6,6,1148,42,335,346,539,54.4,42.7,0,1.8,11.5,4.9,1001
2019/05/22 01:50,80,95,3,1.14,3.2,125,0.73,0.0,9,6,6,1150,27,328,312,540,53.9,42.9,0,1.8,11.5,4.4,1112
2019/05/22 01:52,74,95,5,1.01,3.2,125,0.88,0.0,10,7,5,1156,26,327,304,545,53.9,42.9,0,1.8,11.5,4.5,1029
2019/05/22 01:54,74,95,7,1.01,3.2,136,0.92,1.7,11,7,6,1173,28,325,295,559,54.5,42.8,0,1.8,11.5,4.7,898
2019/05/22 01:56,73,95,11,1.01,2.9,136,0.92,0.0,11,8,7,1183,28,324,277,567,55.2,42.8,0,1.8,11.5,4.8,834
2019/05/22 01:58,73,95,6,1.02,3.0,136,0.92,0.0,11,8,7,1651,130,461,122,359,49.6,36.6,0,1.9,11.5,4.8,881
2019/05/22 02:00,91,95,6,1.46,3.0,136,0.92,0.0,11,8,6,1682,124,456,129,369,49.3,36.9,0,1.9,11.5,4.7,846
2019/05/22 02:02,86,92,7,1.46,3.0,82,0.92,0.2,11,8,7,1662,66,410,80,378,48.5,37.2,0,1.9,11.5,4.1,1046
2019/05/22 02:04,86,95,10,1.46,2.9,81,0.92,0.0,12,8,8,1751,106,450,149,391,48.4,37.4,0,1.9,11.5,4.6,838
2019/05/22 02:06,61,92,13,1.01,2.8,77,0.92,0.0,12,8,9,1773,106,450,150,396,48.1,37.5,0,1.9,11.5,4.6,844
2019/05/22 02:08,61,92,11,1.01,2.8,77,0.92,3.0,12,8,5,1803,100,452,149,404,47.6,37.7,0,1.9,11.5,4.6,856
2019/05/22 02:10,69,92,5,1.12,2.6,77,0.92,0.0,9,7,5,1833,104,472,149,409,47.0,37.9,0,1.9,11.5,4.8,742
2019/05/22 02:12,70,95,21,1.12,3.1,81,0.92,1.6,13,10,11,1848,99,479,180,418,46.3,38.1,0,1.9,11.5,4.8,718
2019/05/22 02:14,70,95,20,1.12,3.1,81,0.92,0.0,13,10,8,1860,81,479,183,427,45.6,38.4,0,1.9,11.5,4.7,718
2019/05/22 02:16,50,97,25,0.86,3.1,81,0.92,0.0,13,11,9,1872,70,481,203,441,44.8,38.7,0,1.9,11.5,4.7,676
2019/05/22 02:18,50,97,27,0.9,3.1,81,0.92,1.0,13,11,10,1877,62,483,205,445,44.6,38.8,0,1.9,11.5,4.7,664
2019/05/22 02:20,53,97,25,0.91,3.1,78,0.92,0.0,13,11,8,1883,56,485,205,451,44.3,39.0,0,1.9,11.5,4.6,678
2019/05/22 02:22,53,97,27,0.91,3.1,78,0.92,0.4,12,11,10,1911,51,500,203,462,43.8,39.2,0,1.9,11.5,4.7,746
2019/05/22 02:24,53,97,27,0.91,3.1,78,0.92,0.4,13,11,11,1925,42,505,219,479,43.4,39.5,0,1.9,11.5,4.6,682
2019/05/22 02:26,22,90,27,0.67,2.8,62,0.77,0.0,13,11,11,1945,32,509,222,493,43.0,39.8,0,1.9,11.5,4.6,713
2019/05/22 02:28,26,95,27,0.63,2.8,80,0.77,1.2,13,11,9,1947,30,510,237,498,42.8,39.9,0,1.9,11.5,4.6,650
2019/05/22 02:30,25,93,27,0.63,2.8,80,0.77,0.0,13,11,9,1979,22,515,237,513,42.4,40.2,0,1.9,11.5,4.6,621
2019/05/22 02:32,25,93,24,0.61,2.9,80,0.77,0.3,15,10,10,1989,20,522,250,517,42.4,40.3,0,1.9,11.5,4.6,605
2019/05/22 02:34,25,93,24,0.61,3.0,80,0.77,0.0,15,10,8,1987,18,522,255,520,42.3,40.3,0,1.9,11.5,4.6,584
2019/05/22 02:36,17,92,24,0.61,3.0,57,0.77,0.0,15,10,8,2061,28,543,205,508,43.4,40.1,0,1.9,11.5,4.9,695
2019/05/22 02:38,17,92,34,0.63,3.0,57,0.77,0.7,16,11,11,2059,6,525,221,551,40.9,40.8,0,1.8,11.5,4.5,388
2019/05/22 02:40,15,89,34,0.63,2.8,53,0.77,0.0,15,12,11,2059,6,525,232,551,41.0,40.8,0,1.8,11.5,4.5,384
2019/05/22 02:42,14,91,34,0.63,2.8,53,0.77,0.3,15,12,5,2079,5,533,237,558,40.7,40.9,0,1.8,11.5,4.6,453
2019/05/22 02:44,15,89,32,0.62,2.6,53,0.77,1.4,15,12,8,2081,10,568,243,546,42.1,40.7,0,1.8,11.5,5.0,724
2019/05/22 02:46,13,85,25,0.56,2.4,57,0.83,0.6,15,12,9,2134,1,553,191,577,40.1,41.2,0,1.8,11.5,4.5,528
2019/05/22 02:48,14,78,23,0.56,2.4,57,0.83,0.0,15,12,9,2070,8,568,262,555,41.5,40.9,0,1.8,11.5,4.9,736
2019/05/22 02:50,11,85,24,0.54,2.4,57,0.93,0.5,15,12,5,2079,6,570,267,561,41.1,41.0,0,1.8,11.5,5.0,768
2019/05/22 02:52,9,87,16,0.46,2.6,57,0.93,0.0,15,9,7,2083,7,570,268,560,41.5,40.9,0,1.8,11.5,5.0,773
2019/05/22 02:54,6,78,10,0.44,2.7,43,0.93,0.0,15,9,7,2402,57,626,97,540,45.2,38.8,0,1.8,11.5,5.0,757
2019/05/22 02:56,6,78,12,0.44,2.7,43,0.93,0.0,15,9,7,2482,41,648,95,559,44.8,39.4,0,1.8,11.5,4.9,705
2019/05/22 02:58,3,71,12,0.44,2.7,33,0.93,0.8,15,9,5,2487,35,647,94,570,44.4,39.8,0,1.8,11.5,4.9,683
2019/05/22 03:00,3,64,8,0.37,2.3,36,0.93,0.4,12,8,5,2547,29,672,84,576,44.2,40.2,0,1.8,11.5,4.8,693
2019/05/22 03:02,3,58,5,0.32,2.1,36,0.93,0.0,12,8,5,2548,30,676,84,576,44.2,40.1,0,1.8,11.5,4.9,700
2019/05/22 03:04,4,63,6,0.32,2.0,36,0.93,1.4,12,8,6,2593,23,705,63,586,43.8,40.7,0,1.8,11.5,4.8,624
2019/05/22 03:06,4,63,7,0.31,2.0,36,0.93,0.0,13,7,7,2603,14,721,40,596,43.4,41.3,0,1.8,11.5,4.7,530
2019/05/22 03:08,3,47,7,0.31,1.8,29,0.93,0.0,10,7,7,2614,13,727,34,597,43.4,41.3,0,1.8,11.5,4.7,513
2019/05/22 03:10,2,63,7,0.25,1.8,29,0.93,0.3,10,7,5,2610,13,734,37,598,43.4,41.4,0,1.8,11.5,4.7,529
2019/05/22 03:12,1,46,6,0.25,1.7,16,0.93,0.0,12,7,6,2591,10,733,38,606,43.2,41.7,0,1.8,11.5,4.7,525
2019/05/22 03:14,1,38,5,0.25,1.7,16,0.93,0.6,12,7,6,2579,8,738,28,612,43.1,41.9,0,1.8,11.5,4.7,491
2019/05/22 03:16,1,44,5,0.23,2.0,20,0.93,0.6,12,7,3,2575,7,742,25,615,43.1,41.9,0,1.8,11.5,4.7,494
2019/05/22 03:18,1,44,5,0.23,2.0,20,0.93,0.0,12,7,3,2564,8,738,29,614,43.1,41.9,0,1.8,11.5,4.7,495
2019/05/22 03:20,1,33,1,0.23,2.0,20,0.93,0.6,8,4,5,2512,4,738,14,633,42.9,42.4,0,1.8,11.5,4.7,455
2019/05/22 03:22,1,44,1,0.23,1.6,20,0.66,0.0,8,6,4,2484,4,741,5,638,42.9,42.5,0,1.8,11.5,4.8,300
2019/05/22 03:24,1,25,1,0.13,1.5,12,0.57,0.0,8,6,5,2461,3,737,4,643,42.8,42.6,0,1.8,11.5,4.8,281
2019/05/22 03:26,1,25,1,0.13,1.4,12,0.54,0.0,9,6,5,2339,1,720,5,659,42.5,42.9,0,1.7,11.5,4.8,322
2019/05/22 03:28,1,22,1,0.13,1.4,5,0.49,0.0,9,6,5,2316,1,722,5,660,42.5,42.9,0,1.7,11.5,4.8,293
2019/05/22 03:30,1,12,1,0.13,1.3,5,0.49,0.0,9,6,4,2251,1,717,3,664,42.4,43.1,0,1.7,11.5,4.9,286
2019/05/22 03:32,1,25,1,0.13,1.4,5,0.3,0.0,9,6,3,2271,4,731,2,641,43.3,42.7,0,1.7,11.5,5.2,130
2019/05/22 03:34,1,12,1,0.09,1.4,4,0.27,0.0,6,5,3,2212,2,720,1,656,42.8,43.0,0,1.7,11.5,5.2,98
2019/05/22 03:36,1,12,1,0.09,1.4,4,0.24,0.0,6,5,4,2183,1,714,0,662,42.7,43.1,0,1.7,11.5,5.2,93
2019/05/22 03:38,1,12,1,0.11,1.3,2,0.24,0.0,6,5,2,2168,1,711,0,664,42.6,43.1,0,1.7,11.5,5.2,97
2019/05/22 03:40,1,2,1,0.11,1.2,5,0.24,0.0,8,5,3,2005,0,668,2,702,42.1,43.5,0,1.7,11.5,5.0,550
2019/05/22 03:42,1,2,1,0.11,1.2,5,0.24,0.0,8,5,3,1984,0,658,2,707,42.1,43.5,0,1.7,11.5,5.0,539
2019/05/22 03:44,1,2,1,0.05,1.2,5,0.24,0.0,7,5,3,1885,0,633,0,716,42.0,43.5,0,1.7,11.5,5.0,477
2019/05/22 03:46,1,2,1,0.05,1.2,5,0.24,0.0,7,5,3,1874,0,628,0,717,42.0,43.5,0,1.7,11.5,5.0,474
2019/05/22 03:48,1,2,1,0.04,1.1,4,0.16,0.0,7,5,3,1819,0,614,0,720,42.1,43.5,0,1.7,11.5,5.0,409
2019/05/22 03:50,1,2,1,0.04,1.1,3,0.16,0.0,7,5,3,1811,0,610,0,721,42.0,43.5,0,1.7,11.5,5.0,389
2019/05/22 03:52,1,2,1,0.04,1.1,2,0.14,0.0,5,4,2,1747,0,594,999,725,43.0,43.7,0,1.7,11.4,5.0,300
2019/05/22 03:54,1,2,1,0.04,1.1,2,0.14,0.0,5,4,2,1693,0,579,999,730,42.7,43.8,0,1.6,11.4,5.0,263
2019/05/22 03:56,1,1,0,0.0,1.0,2,0.14,0.0,4,3,2,1679,0,577,999,731,42.7,43.8,0,1.6,11.4,5.0,265
2019/05/22 03:58,1,1,0,0.0,0.8,0,0.14,0.0,4,3,2,1741,0,592,999,726,43.0,43.7,0,1.7,11.4,5.1,68
2019/05/22 04:00,1,1,0,0.0,0.8,0,0.14,0.0,4,3,2,1733,0,590,999,727,42.9,43.7,0,1.7,11.4,5.1,62
2019/05/22 04:02,1,1,0,0.0,0.8,0,0.12,0.0,2,2,2,1628,0,565,999,734,42.5,43.9,0,1.6,11.4,5.2,120
2019/05/22 04:04,1,1,0,0.0,0.8,0,0.12,0.0,2,2,2,1610,0,561,999,736,42.5,43.9,0,1.6,11.4,5.2,113
2019/05/22 04:06,0,1,0,0.0,0.7,1,0.12,0.0,4,2,2,1459,0,518,999,738,41.9,44.2,0,1.6,11.4,5.2,551
2019/05/22 04:08,0,1,0,0.0,0.7,1,0.12,0.0,4,2,2,1431,0,508,999,738,41.6,44.3,0,1.6,11.4,5.2,570
2019/05/22 04:10,1,1,0,0.0,0.7,1,0.12,0.0,3,2,2,1395,0,496,999,740,41.3,44.4,0,1.6,11.4,5.2,466
2019/05/22 04:12,1,1,0,0.0,0.7,1,0.12,0.0,3,2,3,1365,0,485,999,740,41.0,44.5,0,1.6,11.4,5.2,451
2019/05/22 04:14,0,1,0,0.0,0.6,0,0.12,0.0,4,2,3,1349,0,479,999,740,40.8,44.5,0,1.6,11.4,5.2,468
2019/05/22 04:16,0,1,0,0.0,0.7,0,0.12,0.0,4,2,3,1282,0,448,999,738,39.9,44.7,0,1.6,11.4,5.3,472
2019/05/22 04:18,0,1,0,0.0,0.8,0,0.12,0.0,3,2,3,1209,0,408,999,732,38.9,45.0,0,1.6,11.4,5.2,635
